Zephyrhills, FL

6:04 AM EDT on August 21, 2019 (GMT -0400)
Tucker | | Change Station
Active Advisory: Flood Warning

Elev 102 ft 28.21 °N, 82.19 °W | Updated 22 seconds ago

Clear
Clear
73.2 °F
Feels Like 73.2 °F
N
0
Wind Variable Wind from NNW
Gusts 0.0 mph

Today
High -- | Low -- °F
--% Chance of Precip.
Yesterday
High -- | Low -- °F
Precip. -- in
Pressure 30.09 in
Visibility 10.0 miles
Clouds Clear
Dew Point 73 °F
Humidity 99%
Rainfall 0.01 in
Snow Depth Not available.
7:01 AM 8:01 PM
Waning Gibbous, 71% visible
METAR KZPH 210955Z AUTO 00000KT 10SM CLR 23/23 A3009 RMK A02 T02330230
Pressure 30.09 in
Visibility 10.0 miles
Clouds Clear
Dew Point 73 °F
Humidity 99%
Rainfall 0.01 in
Snow Depth Not available.
7:01 AM 8:01 PM
Waning Gibbous, 71% visible
METAR KZPH 210955Z AUTO 00000KT 10SM CLR 23/23 A3009 RMK A02 T02330230

Get Your Daily Forecast Email!

Thanks for signing up!

Be on the lookout for a verification email in your inbox.

You'll start receiving severe weather alerts in your inbox..

×

10-Day Weather Forecast

Almanac

Astronomy

Aug. 21, 2019 Rise Set
Actual Time
Civil Twilight
Nautical Twilight
Astronomical Twilight
Moon
Length of Visible Light
Length of Day
Tomorrow will be .
, % of the Moon is Illuminated

Today's Extremes

State Highs State Lows

Community

WunderPhotos

Category 6

Welcome to Category 6. This is the collective home for Weather Underground's featured writeups by Dr. Jeff Masters (right), Bob Henson (left), Chris Burt, and other regular contributors.

Nearby

Air Quality

  Air Quality AQ Index Pollutant
Not available.

Snow Depth

Station Depth Elevation

Earthquake Activity

City Distance Mag. Time & Date
Minimum magnitude displayed is 2.5.

Coastal Water Temperatures

Place Temperature

Stations

Nearby Weather Stations

Station Location Temp. Windchill Dew Point Humidity Wind Precip. Elev Updated Type
                   

Watches & Warnings

Flood Warning
Issued: 9:00 PM EDT Aug. 20, 2019 – National Weather Service

The Flood Warning continues for
the Cypress Creek at Worthington Gardens
* until Thursday afternoon.
* At 08 PM Tuesday the stage was 8.2 feet.
* Minor flooding is occurring and minor flooding is forecast.
* Flood stage is 8.0 feet.
* The river is expected to fall below flood stage by Thursday
morning.
* Impact... at 8.0 feet... flooding begins at the Recreation Area on
State Road 54.
* Flood history... this compares to a previous crest of 8.2 feet
on Aug 12 2012.



               Fld observed forecast 8am
location stg stg day time Wed Thu Fri Sat sun

Cypress Creek
Worthington 8.0 8.2 Tue 08 PM 8.2 8.0 7.8 7.6 7.3




Lat... Lon 2819 8234 2814 8234 2814 8240 2819 8240